This is the latest recevied weather packets stored in our database for station/object EB2EMZ-14. If no packets are shown the sender has not sent any weather packets the latest 10 day(s).
| Time | Temp. | Humidity | Pressure | Rain* | Wind** | Luminosity | Snow |
|---|---|---|---|---|---|---|---|
| 1777511114 | 10.56° C | 92% | 1012 hPa | 0 mm | - | 0 W/m² | - |
| 1777510812 | 10.56° C | 92% | 1012.1 hPa | 0 mm | - | 0 W/m² | - |
| 1777510514 | 11.11° C | 92% | 1012.2 hPa | 0 mm | - | 0 W/m² | - |
| 1777510213 | 11.11° C | 92% | 1012.2 hPa | 0 mm | - | 0 W/m² | - |
| 1777509911 | 11.11° C | 92% | 1012.1 hPa | 0 mm | - | 0 W/m² | - |
| 1777509613 | 11.11° C | 92% | 1012.2 hPa | 0 mm | - | 0 W/m² | - |
| 1777509313 | 11.11° C | 92% | 1011.9 hPa | 0 mm | - | 0 W/m² | - |
| 1777509014 | 11.11° C | 91% | 1011.6 hPa | 0 mm | - | 0 W/m² | - |
| 1777508711 | 11.11° C | 91% | 1011.9 hPa | 0 mm | - | 0 W/m² | - |
| 1777508412 | 11.11° C | 91% | 1012.5 hPa | 0.51 mm | - | 0 W/m² | - |
| 1777508111 | 11.11° C | 91% | 1012.5 hPa | 0.51 mm | - | 0 W/m² | - |
| 1777507811 | 11.11° C | 91% | 1012.4 hPa | 1.02 mm | - | 0 W/m² | - |
| 1777507511 | 11.11° C | 91% | 1012 hPa | 1.02 mm | - | 0 W/m² | - |
| 1777507212 | 11.11° C | 91% | 1012 hPa | 1.02 mm | - | 0 W/m² | - |
| 1777506911 | 11.11° C | 91% | 1011.9 hPa | 1.02 mm | - | 0 W/m² | - |
| 1777506612 | 11.11° C | 91% | 1011.7 hPa | 1.02 mm | - | 0 W/m² | - |
| 1777506312 | 11.11° C | 91% | 1011.6 hPa | 1.02 mm | - | 0 W/m² | - |
| 1777506011 | 11.11° C | 91% | 1011.5 hPa | 1.52 mm | - | 0 W/m² | - |
| 1777505711 | 11.11° C | 91% | 1011.2 hPa | 2.03 mm | - | 0 W/m² | - |
| 1777505411 | 11.11° C | 91% | 1010.5 hPa | 2.54 mm | - | 0 W/m² | - |
| 1777505110 | 11.11° C | 91% | 1010.4 hPa | 2.54 mm | - | 0 W/m² | - |
| 1777504812 | 11.11° C | 91% | 1011.9 hPa | 2.03 mm | - | 0 W/m² | - |
| 1777504512 | 11.11° C | 91% | 1012.2 hPa | 2.03 mm | - | 0 W/m² | - |
| 1777504211 | 11.11° C | 91% | 1011.8 hPa | 1.52 mm | - | 0 W/m² | - |
| 1777503911 | 11.11° C | 91% | 1011.7 hPa | 1.52 mm | - | 0 W/m² | - |
* Rain latest hour (hover to see other rain measurements)
** Current wind speed in m/s (hover to see current wind gust speed)